Regional Weather Roundup
Issued by NWS Kansas City/Pleasant Hill, MO

Home | Current Version | Previous Version | Graphics & Text | Print | Product List | Glossary Off
Versions: 1 2 3 4 5 6 7 8 9 10 11 12 13 14 15 16 17 18 19 20 21 22 23 24 25 26 27 28 29 30 31 32 33 34 35 36 37 38 39 40 41 42 43 44 45 46 47 48 49 50

962
ASUS43 KEAX 201710
RWREAX

WEATHER ROUNDUP FOR EASTERN KANSAS AND NORTHWEST MISSOURI
NATIONAL WEATHER SERVICE KANSAS CITY/PLEASANT HILL MO
1200 PM CDT FRI APR 20 2018

KSZ040-057-103>105-MOZ028-029-037-043-201800-
...KANSAS CITY METROPOLITAN AREA...

CITY           SKY/WX    TMP DP  RH WIND       PRES   REMARKS
K.C. INTL      CLOUDY    57  31  37 SE18      30.40F
K.C. DOWNTOWN  CLOUDY    56  28  34 SE15G22   30.41S
LEES SUMMIT    CLOUDY    56  30  37 SE12G22   30.42F
OLATHE - IXD   MOSUNNY   57  31  37 SE16G22   30.40F
OLATHE - OJC   MOSUNNY   55  31  39 SE15G22   30.40F
LAWRENCE       PTSUNNY   59  30  33 SE14G28   30.39F

$$

MOZ001>008-011>017-020>025-030>033-038>040-044>046-053-054-201800-
...NORTHERN AND CENTRAL MISSOURI...

CITY           SKY/WX    TMP DP  RH WIND       PRES   REMARKS
ST. JOSEPH     MOSUNNY   58  31  35 SE12G22   30.41F
MOSBY          PTSUNNY   55  27  33 SE14      30.42F
WARRENSBURG    PTSUNNY   57  28  33 E9        30.43S
WHITEMAN AFB   PTSUNNY   57  28  33 SE12G18   30.39F
CLINTON        CLOUDY    57  30  35 SE12      30.42F
SEDALIA        MOSUNNY   57  30  35 E15       30.43F
WARSAW         NOT AVBL
CHILLICOTHE      N/A     57  30  35 SE12G21   30.45F
KIRKSVILLE     CLOUDY    57  27  31 SE13G20   30.47F

$$

MOZ041-047>049-056>058-063>065-088>090-097-201800-
...EASTERN AND SOUTHERN MISSOURI...

CITY           SKY/WX    TMP DP  RH WIND       PRES   REMARKS
ST. LOUIS INTL MOSUNNY   57  20  23 SE13      30.49F
SPIRIT OF STL  SUNNY     59  17  19 E13G18    30.48S
COLUMBIA       CLOUDY    58  25  28 E13       30.45F
JEFFERSON CITY SUNNY     56  23  27 E9G18     30.45F
ROLLA          SUNNY     55  24  30 E13       30.45F
OSAGE BEACH    SUNNY     57  27  31 E10G18    30.44F
SPRINGFIELD    CLOUDY    57  29  34 SE13      30.38F
BRANSON        MOSUNNY   55  32  41 SE14      30.40F
JOPLIN         CLOUDY    58  33  39 SE14      30.37F
WEST PLAINS    SUNNY     57  27  31 VRB7      30.43F

$$

IAZ060-094-KSZ022-034>040-054-083-096-NEZ052-066-093-201800-
...KANSAS...SOUTHEAST NEBRASKA AND IOWA...

CITY           SKY/WX    TMP DP  RH WIND       PRES   REMARKS
TOPEKA         CLOUDY    58  32  37 SE18G24   30.38F
MANHATTAN      CLOUDY    59  31  34 SE14G23   30.35F
EMPORIA        PTSUNNY   57  31  37 SE17G24   30.35S
CHANUTE        CLOUDY    59  32  36 E12       30.36F
WICHITA        CLOUDY    59  33  37 SE18      30.30F
OMAHA          PTSUNNY   55  30  38 SE15      30.41F
LINCOLN        MOSUNNY   55  31  39 S15G21    30.39F
FALLS CITY     CLOUDY    57  29  34 SE15G26   30.39F
LAMONI         PTSUNNY   55  27  34 SE12      30.43F
DES MOINES     CLOUDY    55  29  36 S6        30.46F

$$





USA.gov is the U.S. government's official web portal to all federal, state and local government web resources and services.